Home > Weather > Brest > Past weeks

Flag for France Past Weather in Brest, Brittany, France — Yesterday and Last 2 Weeks

Now
55 °F

Passing clouds.


Feels Like: 53 °F
Forecast: 55 / 63 °F
Wind: 9 mph from North

Location: Brest Airport

Current Time: Jun 1, 2016 at 7:41:19 AM

Latest Report: Jun 1, 2016 at 7:00 AM


Visibility: 4 mi

Pressure: 30.15 "Hg

Humidity: 94%

Dew Point: 54 °F

Location of BrestLocation

Past Weather in Brest — Graph

°F

Brest Temperature Yesterday

Maximum temperature yesterday: 66 °F (at 2:00 PM)
Minimum temperature yesterday: 52 °F (at 5:30 AM)
Average temperature yesterday: 59 °F

High & Low Weather Summary for the Past Weeks

 TemperatureHumidityPressure
High70 °F (May 28, 3:00 PM)100% (May 19, 5:00 AM)30.21 "Hg (May 19, 5:00 AM)
Low43 °F (May 24, 1:00 AM)43% (May 24, 4:00 PM)29.71 "Hg (May 22, 4:00 AM)
Average56 °F80%29.97 "Hg
* Reported May 17 6:00 AM — Jun 1 6:30 AM, Brest, Weather by CustomWeather, © 2016

Note: Actual official high and low records may vary slightly from our data, if they occured in-between our weather recording intervals... More about our weather records

Advertising

Brest Weather History for the Previous 24 Hours

Scroll right to see more
 ConditionsComfort  
Time TempWeatherWind HumidityBarometerVisibility
6:30 AM
Wed, Jun 1
55 °FDrizzle. Fog.10 mph94%30.15 "Hg3 mi
6:00 AM55 °FPassing clouds.12 mph94%30.15 "Hg4 mi
5:30 AM55 °FPartly cloudy.10 mph88%30.15 "HgN/A
5:00 AM55 °FPassing clouds.12 mph94%30.15 "HgN/A
4:30 AM55 °FLight rain. Mostly cloudy.10 mph88%30.15 "Hg6 mi
4:00 AM57 °FOvercast.10 mph82%30.18 "HgN/A
3:30 AM55 °FClear.8 mph88%30.18 "Hg10 mi
3:00 AM55 °FCool.8 mph88%30.18 "HgN/A
2:30 AM55 °FClear.8 mph88%30.18 "Hg10 mi
2:00 AM55 °FPassing clouds.9 mph88%30.18 "HgN/A
1:30 AM55 °FClear.10 mph82%30.18 "Hg10 mi
1:00 AM55 °FClear.10 mph82%30.18 "Hg10 mi
12:30 AM55 °FClear.10 mph82%30.18 "Hg10 mi
12:00 AM55 °FClear.13 mph82%30.18 "Hg10 mi
11:30 PM
Tue, May 31
55 °FClear.13 mph82%30.18 "Hg10 mi
11:00 PM57 °FSunny.13 mph77%30.18 "Hg10 mi
10:30 PM57 °FSunny.13 mph77%30.18 "Hg10 mi
10:00 PM57 °FSunny.14 mph77%30.15 "Hg10 mi
9:30 PM59 °FSunny.15 mph72%30.15 "Hg10 mi
9:00 PM61 °FSunny.16 mph68%30.15 "Hg10 mi
8:30 PM61 °FSunny.18 mph68%30.15 "Hg10 mi
8:00 PM63 °FSunny.18 mph64%30.15 "Hg10 mi
7:30 PM63 °FSunny.20 mph64%30.15 "Hg10 mi
7:00 PM63 °FSunny.17 mph64%30.15 "Hg10 mi
6:30 PM64 °FPassing clouds.20 mph64%30.15 "HgN/A
6:00 PM64 °FSunny.21 mph60%30.15 "Hg10 mi
5:30 PM66 °FSunny.20 mph56%30.15 "Hg10 mi
5:00 PM66 °FSunny.21 mph52%30.12 "Hg10 mi
4:30 PM66 °FPassing clouds.18 mph56%30.15 "HgN/A
4:00 PM66 °FSunny.22 mph56%30.15 "Hg10 mi
3:30 PM66 °FSunny.21 mph56%30.15 "Hg10 mi
3:00 PM64 °FSunny.22 mph60%30.15 "Hg10 mi
2:44 PM66 °FSunny.22 mph56%30.15 "Hg10 mi
2:00 PM66 °FSunny.18 mph56%30.15 "Hg10 mi
1:30 PM64 °FPassing clouds.18 mph60%30.15 "HgN/A
1:00 PM64 °FSunny.17 mph56%30.15 "Hg10 mi
12:35 PM64 °FSunny.18 mph60%30.15 "Hg10 mi
12:00 PM64 °FSunny.16 mph64%30.15 "Hg10 mi
11:30 AM64 °FPassing clouds.17 mph60%30.12 "HgN/A
11:00 AM64 °FSunny.16 mph60%30.12 "Hg10 mi
10:30 AM63 °FPassing clouds.14 mph73%30.12 "HgN/A
10:00 AM61 °FSunny.14 mph77%30.12 "Hg10 mi
9:30 AM61 °FPassing clouds.9 mph77%30.12 "HgN/A
9:00 AM57 °FPassing clouds.8 mph88%30.12 "HgN/A
8:30 AM55 °FScattered clouds.7 mph94%30.12 "Hg5 mi
8:00 AM54 °FPartly sunny.7 mph100%30.12 "Hg4 mi
7:00 AM54 °FPassing clouds.6 mph94%30.09 "Hg3 mi
Weather by CustomWeather, © 2016

See weather overviewHow to use our weather pages